Overview Statistics Trail Chart Weather Telemetry Raw packets
 

This is the latest recevied weather packets stored in our database for station/object KB4MLW-13. If no packets are shown the sender has not sent any weather packets the latest 10 day(s).

<< 8 9 10 11 12 13 14 >>
Time Temp. Humidity Pressure Rain* Wind** Luminosity Snow
1788367558 34.44° C 58% 1002.2 hPa 0 mm - - -
1788367498 34.44° C 61% 1002 hPa 0 mm - - -
1788367410 34.44° C 59% 1002.2 hPa 0 mm - - -
1788367318 34.44° C 61% 1002.1 hPa 0 mm - - -
1788367258 34.44° C 58% 1002.3 hPa 0 mm - - -
1788367198 34.44° C 59% 1002.4 hPa 0 mm - - -
1788367109 34.44° C 60% 1002.2 hPa 0 mm - - -
1788367048 34.44° C 60% 1002 hPa 0 mm - - -
1788366988 34.44° C 61% 1002.3 hPa 0 mm - - -
1788366899 34.44° C 63% 1002.4 hPa 0 mm - - -
1788366838 34.44° C 61% 1002.1 hPa 0 mm - - -
1788366688 34.44° C 61% 1002.3 hPa 0 mm - - -
1788366599 34.44° C 58% 1002.3 hPa 0 mm - - -
1788366538 34.44° C 59% 1002.3 hPa 0 mm - - -
1788366450 34.44° C 61% 1002.2 hPa 0 mm - - -
1788366389 34.44° C 64% 1002.3 hPa 0 mm - - -
1788366298 34.44° C 63% 1002.5 hPa 0 mm - - -
1788366239 34.44° C 62% 1002.5 hPa 0 mm - - -
1788366149 33.89° C 61% 1002.7 hPa 0 mm - - -
1788366080 33.89° C 65% 1002.2 hPa 0 mm - - -
1788365968 34.44° C 61% 1002.5 hPa 0 mm - - -
1788365878 34.44° C 60% 1002.4 hPa 0 mm - - -
1788365789 34.44° C 60% 1002.5 hPa 0 mm - - -
1788365698 34.44° C 63% 1002.3 hPa 0 mm - - -
1788365638 33.89° C 62% 1002.4 hPa 0 mm - - -

* Rain latest hour (hover to see other rain measurements)
** Current wind speed in m/s (hover to see current wind gust speed)